TimeCST,TemperatureF,Dew PointF,Humidity,Sea Level PressureIn,VisibilityMPH,Wind Direction,Wind SpeedMPH,Gust SpeedMPH,PrecipitationIn,Events,Conditions,WindDirDegrees,DateUTC
12:53 AM,9.0,1.9,73,30.12,10.0,NW,8.1,-,N/A,,Overcast,320,2013-01-06 06:53:00
1:53 AM,10.0,5.0,80,30.13,10.0,NW,5.8,-,N/A,,Overcast,310,2013-01-06 07:53:00
2:53 AM,10.0,6.1,84,30.14,10.0,West,4.6,-,N/A,,Overcast,260,2013-01-06 08:53:00
3:31 AM,5.0,1.4,85,30.06,10.0,WNW,5.8,-,N/A,,Mostly Cloudy,300,2013-01-06 09:31:00
3:53 AM,5.0,3.0,92,30.16,10.0,WNW,6.9,-,N/A,,Overcast,290,2013-01-06 09:53:00
4:42 AM,10.4,6.8,85,30.06,10.0,WNW,6.9,-,N/A,,Overcast,300,2013-01-06 10:42:00
4:53 AM,10.9,8.1,88,30.16,10.0,WNW,8.1,-,N/A,,Overcast,300,2013-01-06 10:53:00
5:53 AM,12.9,9.0,84,30.17,10.0,NW,9.2,-,N/A,,Overcast,310,2013-01-06 11:53:00
6:53 AM,10.9,9.0,92,30.18,10.0,NW,5.8,-,N/A,,Overcast,310,2013-01-06 12:53:00
7:53 AM,12.9,10.0,88,30.21,10.0,WNW,6.9,-,N/A,,Overcast,300,2013-01-06 13:53:00
8:53 AM,12.9,10.0,88,30.21,10.0,Calm,Calm,-,N/A,,Overcast,0,2013-01-06 14:53:00
9:53 AM,12.9,10.9,92,30.22,10.0,SSW,3.5,-,N/A,,Overcast,210,2013-01-06 15:53:00
10:53 AM,14.0,10.9,88,30.23,8.0,SW,3.5,-,N/A,,Overcast,220,2013-01-06 16:53:00
11:53 AM,15.1,10.9,84,30.20,10.0,Variable,3.5,-,N/A,,Overcast,0,2013-01-06 17:53:00
12:53 PM,15.1,12.0,88,30.19,10.0,SSW,5.8,-,N/A,,Overcast,210,2013-01-06 18:53:00
1:53 PM,16.0,12.9,88,30.17,10.0,South,6.9,-,N/A,,Overcast,190,2013-01-06 19:53:00
2:53 PM,15.8,12.2,86,30.06,9.0,South,9.2,-,N/A,,Overcast,170,2013-01-06 20:53:00
3:53 PM,16.0,12.0,84,30.15,10.0,South,9.2,-,N/A,,Overcast,190,2013-01-06 21:53:00
4:53 PM,16.0,12.9,88,30.12,8.0,South,10.4,-,N/A,,Overcast,170,2013-01-06 22:53:00
5:53 PM,15.1,12.0,88,30.11,8.0,SSW,12.7,-,N/A,,Overcast,200,2013-01-06 23:53:00
6:53 PM,14.0,12.0,92,30.07,5.0,SSE,11.5,-,N/A,,Overcast,160,2013-01-07 00:53:00
7:53 PM,12.9,10.0,88,30.04,4.0,South,10.4,-,N/A,,Overcast,170,2013-01-07 01:53:00
8:29 PM,10.4,8.6,92,29.90,6.0,SE,11.5,-,N/A,,Partly Cloudy,140,2013-01-07 02:29:00
8:53 PM,10.9,8.1,88,29.96,6.0,SE,12.7,-,N/A,,Clear,140,2013-01-07 02:53:00
9:21 PM,10.4,8.6,92,29.85,7.0,SSE,11.5,-,N/A,,Partly Cloudy,150,2013-01-07 03:21:00
9:53 PM,10.0,7.0,87,29.95,7.0,SSE,9.2,-,N/A,,Scattered Clouds,150,2013-01-07 03:53:00
10:53 PM,9.0,6.1,88,29.91,7.0,SE,9.2,-,N/A,,Clear,140,2013-01-07 04:53:00
11:53 PM,12.0,9.0,88,29.87,7.0,South,11.5,-,N/A,,Clear,170,2013-01-07 05:53:00